TimePDT,TemperatureF,Dew PointF,Humidity,Sea Level PressureIn,VisibilityMPH,Wind Direction,Wind SpeedMPH,Gust SpeedMPH,PrecipitationIn,Events,Conditions,WindDirDegrees,DateUTC
12:53 AM,82.0,48.9,31,29.75,10.0,SSW,3.5,-,N/A,,Clear,200,2013-09-13 07:53:00
1:53 AM,80.1,50.0,35,29.75,10.0,Calm,Calm,-,N/A,,Clear,0,2013-09-13 08:53:00
2:53 AM,78.1,51.1,39,29.74,10.0,SW,3.5,-,N/A,,Clear,220,2013-09-13 09:53:00
3:53 AM,79.0,51.1,38,29.73,10.0,Calm,Calm,-,N/A,,Clear,0,2013-09-13 10:53:00
4:53 AM,82.0,41.0,23,29.72,10.0,NNW,3.5,-,N/A,,Clear,330,2013-09-13 11:53:00
5:53 AM,77.0,48.0,36,29.73,10.0,NNW,4.6,-,N/A,,Clear,340,2013-09-13 12:53:00
6:53 AM,75.9,48.0,37,29.74,8.0,WSW,5.8,-,N/A,,Clear,240,2013-09-13 13:53:00
7:53 AM,82.0,44.1,26,29.74,10.0,Calm,Calm,-,N/A,,Clear,0,2013-09-13 14:53:00
8:53 AM,89.1,39.9,18,29.74,10.0,Calm,Calm,-,N/A,,Clear,0,2013-09-13 15:53:00
9:53 AM,93.9,37.0,14,29.73,10.0,Calm,Calm,-,N/A,,Clear,0,2013-09-13 16:53:00
10:53 AM,99.0,32.0,10,29.71,10.0,Calm,Calm,-,N/A,,Clear,0,2013-09-13 17:53:00
11:53 AM,102.0,28.9,8,29.69,10.0,SSE,3.5,-,N/A,,Clear,160,2013-09-13 18:53:00
12:53 PM,102.9,32.0,8,29.67,10.0,SSE,6.9,-,N/A,,Clear,160,2013-09-13 19:53:00
1:53 PM,104.0,33.1,9,29.64,10.0,SSE,5.8,-,N/A,,Clear,150,2013-09-13 20:53:00
2:53 PM,105.1,34.0,9,29.61,10.0,South,8.1,-,N/A,,Clear,170,2013-09-13 21:53:00
3:53 PM,105.1,34.0,9,29.60,10.0,Variable,5.8,-,N/A,,Clear,0,2013-09-13 22:53:00
4:53 PM,105.1,34.0,9,29.58,10.0,Variable,3.5,-,N/A,,Clear,0,2013-09-13 23:53:00
5:53 PM,104.0,37.0,10,29.57,10.0,West,6.9,-,N/A,,Clear,280,2013-09-14 00:53:00
6:53 PM,100.9,37.0,11,29.57,10.0,Calm,Calm,-,N/A,,Clear,0,2013-09-14 01:53:00
7:53 PM,98.1,43.0,15,29.59,10.0,NE,4.6,-,N/A,,Clear,50,2013-09-14 02:53:00
8:53 PM,95.0,46.0,19,29.62,10.0,Calm,Calm,-,N/A,,Clear,0,2013-09-14 03:53:00
9:53 PM,93.0,46.9,20,29.63,10.0,NW,5.8,-,N/A,,Clear,310,2013-09-14 04:53:00
10:53 PM,91.0,48.0,23,29.63,10.0,WNW,4.6,-,N/A,,Clear,290,2013-09-14 05:53:00
11:53 PM,89.1,48.9,25,29.64,10.0,NW,4.6,-,N/A,,Clear,310,2013-09-14 06:53:00